Showing default

R2, 46913

Orbit data source: Space-Track

R2, 46913 is a payload satellite owned by NanoAvionics (LT) in LEO that was launched on Sat, 07 Nov 2020 UTC via a PSLV-DL launch vehicle from the Sirharikota (SRI). Payload-class satellites include a variety of spacecraft equipped with specific instruments for various scientific and technological missions. These include communications satellites like Starlink; space stations such as the ISS; scientific satellites like the Hubble; Earth observation satellites from companies like Planet Labs, Umbra, and HawkEye 360; GPS; miniature CubeSats for education and research; and military/defense satellites.

Loading next visibility...
Identifier
46913, 2020-081J
Orbit
LEO
Country
Flag of LTLT / LTU
Related business
Manufacturer
NanoAvionics US
Mission
Operational Commercial Technology
Bus & Motor
CUBESAT 6U, Unknown motor
Mass
6.8 kg wet, 6.8 kg dry
Launch date (UTC)
2020-11-07 (5 years ago)
Launch vehicle
PSLV-DL
Launch site
Sirharikota (SRI)
Object type
Payload
Rocket body
Debris
Shape & HBR
Box, Unknown HBR
Radar Cross Section
0.080 m², Small (<0.1 m²)

Expand to show TLE details & history
Last TLE update: 11 hours ago

TLE from 11 hours ago
0 R2
1 46913U 20081J   26123.27279409  .00008897  00000-0  35362-3 0  9992
2 46913  36.8994 337.8880 0008220 265.7118  94.2691 15.24795757305127
Epoch: 2026-05-03T06:32Z
TLE epoch observation values (Epoch: 2026-05-03T06:32:49.409Z)
Latitude
-0.00004°
Longitude
18.50336°
Altitude
490.931 km
Speed
7.621 km/s
True Right ascension
22h 31m 33s
True Declination
0° 00' 00"
Sunlit
Object was in daylight at epoch
Visualization orbit readout
Latitude
Unknown
Longitude
Unknown
Altitude
Unknown
Speed
Unknown
Apparent Right ascension
Unknown
Apparent Declination
Unknown
Sunlit
N/A
Visualization observer readout
Local Sidereal Time
01:33:20
Azimuth
Unknown
Elevation
Unknown
Doppler factor
Unknown
Orbital elements
Apogee altitude
499.998 km
Perigee altitude
488.699 km
Semi-major axis
6,872.485 km
Eccentricity
0.00082
Inclination
36.8994°
RAAN
337.888°
Arg. of periapsis
265.7118°
True anomaly
94.36303°
Mean anomaly
94.2691°
Eccentric anomaly
94.31606°
Mean motion
3.80954 °/min
Orbital period
94.5 mins
BSTAR
0.00035362
Loading maneuver chart data...
Computing Atmospheric mass density...
Loading historical data...
Loading historical data...
Loading historical data...
Loading historical data...
Loading historical data...
Loading historical data...
Loading historical data...

Documentation

Showing up to 5 results
|